Time,TemperatureF,DewpointF,PressureIn,WindDirection,WindDirectionDegrees,WindSpeedMPH,WindSpeedGustMPH,Humidity,HourlyPrecipIn,Conditions,Clouds,dailyrainin,SoftwareType,DateUTC
2013-07-26 00:12:00,75.0,74.0,29.99,East,90,0.0,0.0,96,0.00,,,0.79,,2013-07-26 04:12:00,
2013-07-26 00:22:00,75.0,74.0,29.99,East,90,0.0,0.0,97,0.00,,,0.79,,2013-07-26 04:22:00,
2013-07-26 00:32:00,75.0,74.0,29.99,SSW,205,0.0,1.0,96,0.00,,,0.79,,2013-07-26 04:32:00,
2013-07-26 00:53:00,76.0,74.0,29.99,SSW,207,0.0,2.0,95,0.00,,,0.79,,2013-07-26 04:53:00,
2013-07-26 01:02:00,76.0,74.0,29.99,SW,231,0.0,3.0,95,0.00,,,0.79,,2013-07-26 05:02:00,
2013-07-26 01:12:00,77.0,75.0,29.99,WSW,257,1.0,4.0,94,0.00,,,0.79,,2013-07-26 05:12:00,
2013-07-26 01:22:00,77.0,74.0,29.99,West,267,2.0,10.0,92,0.00,,,0.79,,2013-07-26 05:22:00,
2013-07-26 01:32:00,76.0,74.0,29.99,West,276,1.0,3.0,93,0.01,,,0.81,,2013-07-26 05:32:00,
2013-07-26 01:43:00,75.0,73.0,29.98,West,263,0.0,4.0,95,0.03,,,0.83,,2013-07-26 05:43:00,
2013-07-26 01:52:00,74.0,73.0,29.98,West,276,0.0,3.0,96,0.06,,,0.85,,2013-07-26 05:52:00,
2013-07-26 02:02:00,74.0,73.0,29.98,SE,136,0.0,1.0,97,0.06,,,0.85,,2013-07-26 06:02:00,
2013-07-26 02:12:00,74.0,73.0,29.98,SW,229,0.0,1.0,98,0.06,,,0.85,,2013-07-26 06:12:00,
2013-07-26 02:22:00,74.0,73.0,29.97,East,90,0.0,0.0,98,0.06,,,0.85,,2013-07-26 06:22:00,
2013-07-26 02:33:00,74.0,73.0,29.98,East,90,0.0,0.0,98,0.04,,,0.85,,2013-07-26 06:33:00,
2013-07-26 02:43:00,74.0,73.0,29.97,East,90,0.0,0.0,98,0.02,,,0.85,,2013-07-26 06:43:00,
2013-07-26 02:52:00,74.0,74.0,29.97,East,90,0.0,0.0,99,0.00,,,0.85,,2013-07-26 06:52:00,
2013-07-26 03:02:00,74.0,74.0,29.96,WSW,253,0.0,4.0,99,0.03,,,0.89,,2013-07-26 07:02:00,
2013-07-26 03:32:00,74.0,74.0,29.95,East,90,0.0,0.0,99,0.07,,,0.92,,2013-07-26 07:32:00,
2013-07-26 03:43:00,74.0,74.0,29.95,East,90,0.0,0.0,99,0.07,,,0.92,,2013-07-26 07:43:00,
2013-07-26 03:53:00,74.0,74.0,29.95,SE,143,0.0,1.0,99,0.07,,,0.92,,2013-07-26 07:53:00,
2013-07-26 04:02:00,74.0,74.0,29.95,West,261,0.0,1.0,99,0.03,,,0.92,,2013-07-26 08:02:00,
2013-07-26 04:12:00,74.0,74.0,29.95,South,179,0.0,1.0,99,0.00,,,0.92,,2013-07-26 08:12:00,
2013-07-26 04:22:00,74.0,74.0,29.95,South,171,0.0,2.0,99,0.00,,,0.92,,2013-07-26 08:22:00,
2013-07-26 04:32:00,74.0,74.0,29.96,South,191,0.0,1.0,99,0.00,,,0.92,,2013-07-26 08:32:00,
2013-07-26 04:44:00,74.0,74.0,29.96,SSE,161,0.0,2.0,99,0.00,,,0.92,,2013-07-26 08:44:00,
2013-07-26 04:52:00,74.0,74.0,29.96,East,90,0.0,0.0,99,0.00,,,0.92,,2013-07-26 08:52:00,
2013-07-26 05:02:00,74.0,74.0,29.96,East,90,0.0,0.0,99,0.00,,,0.92,,2013-07-26 09:02:00,
2013-07-26 05:12:00,74.0,74.0,29.95,East,90,0.0,0.0,99,0.00,,,0.92,,2013-07-26 09:12:00,
2013-07-26 05:22:00,74.0,74.0,29.95,SSW,194,0.0,1.0,99,0.00,,,0.92,,2013-07-26 09:22:00,
2013-07-26 05:32:00,74.0,74.0,29.96,East,90,0.0,0.0,99,0.00,,,0.92,,2013-07-26 09:32:00,
2013-07-26 05:43:00,74.0,74.0,29.96,East,90,0.0,0.0,100,0.00,,,0.92,,2013-07-26 09:43:00,
2013-07-26 05:52:00,74.0,74.0,29.96,East,90,0.0,0.0,100,0.00,,,0.92,,2013-07-26 09:52:00,
2013-07-26 06:02:00,74.0,74.0,29.96,East,90,0.0,0.0,100,0.00,,,0.92,,2013-07-26 10:02:00,
2013-07-26 06:22:00,74.0,74.0,29.97,East,90,0.0,0.0,100,0.00,,,0.92,,2013-07-26 10:22:00,
2013-07-26 06:42:00,74.0,74.0,29.97,West,281,0.0,1.0,100,0.00,,,0.92,,2013-07-26 10:42:00,
2013-07-26 06:52:00,74.0,74.0,29.98,West,281,0.0,1.0,100,0.00,,,0.92,,2013-07-26 10:52:00,
2013-07-26 07:12:00,74.0,74.0,29.98,West,270,0.0,1.0,100,0.00,,,0.92,,2013-07-26 11:12:00,
2013-07-26 07:22:00,74.0,74.0,29.98,West,264,0.0,1.0,100,0.00,,,0.92,,2013-07-26 11:22:00,
2013-07-26 07:32:00,74.0,74.0,29.99,West,272,0.0,1.0,100,0.00,,,0.92,,2013-07-26 11:32:00,
2013-07-26 07:43:00,75.0,75.0,29.99,WNW,288,0.0,1.0,100,0.00,,,0.92,,2013-07-26 11:43:00,
2013-07-26 07:52:00,75.0,75.0,29.99,East,90,0.0,0.0,100,0.00,,,0.92,,2013-07-26 11:52:00,
2013-07-26 08:12:00,75.0,75.0,29.99,East,90,0.0,0.0,100,0.00,,,0.92,,2013-07-26 12:12:00,
2013-07-26 08:22:00,75.0,75.0,30.00,West,277,0.0,1.0,100,0.00,,,0.92,,2013-07-26 12:22:00,
2013-07-26 08:33:00,75.0,75.0,30.00,WSW,256,0.0,1.0,100,0.00,,,0.92,,2013-07-26 12:33:00,
2013-07-26 08:53:00,75.0,75.0,30.00,West,266,0.0,2.0,100,0.00,,,0.92,,2013-07-26 12:53:00,
2013-07-26 09:43:00,76.0,76.0,30.00,West,265,0.0,1.0,99,0.00,,,0.18,,2013-07-26 13:43:00,
2013-07-26 10:02:00,77.0,76.0,30.00,WSW,255,0.0,3.0,98,0.00,,,0.16,,2013-07-26 14:02:00,
2013-07-26 10:32:00,79.0,77.0,30.00,West,270,0.0,3.0,94,0.00,,,0.16,,2013-07-26 14:32:00,
2013-07-26 10:43:00,79.0,77.0,30.00,West,265,0.0,4.0,94,0.00,,,0.15,,2013-07-26 14:43:00,
2013-07-26 10:53:00,79.0,77.0,30.00,West,277,0.0,2.0,93,0.00,,,0.14,,2013-07-26 14:53:00,
2013-07-26 11:22:00,80.0,76.0,30.01,West,273,0.0,2.0,88,0.00,,,0.14,,2013-07-26 15:22:00,
2013-07-26 11:33:00,81.0,77.0,30.01,West,265,0.0,1.0,87,0.00,,,0.14,,2013-07-26 15:33:00,
2013-07-26 11:43:00,81.0,77.0,30.01,SSE,148,0.0,1.0,88,0.00,,,0.14,,2013-07-26 15:43:00,
2013-07-26 11:53:00,82.0,77.0,30.01,NNE,16,0.0,1.0,86,0.00,,,0.14,,2013-07-26 15:53:00,
2013-07-26 12:43:00,85.0,78.0,30.01,North,8,0.0,3.0,79,0.00,,,0.14,,2013-07-26 16:43:00,
2013-07-26 13:02:00,85.0,77.0,30.00,North,10,1.0,4.0,78,0.00,,,0.14,,2013-07-26 17:02:00,
2013-07-26 13:33:00,87.0,77.0,29.99,NW,319,0.0,1.0,73,0.00,,,0.14,,2013-07-26 17:33:00,
2013-07-26 13:43:00,87.0,77.0,29.99,NE,46,0.0,3.0,72,0.00,,,0.14,,2013-07-26 17:43:00,
2013-07-26 13:53:00,87.0,77.0,29.99,NE,46,0.0,3.0,72,0.00,,,0.14,,2013-07-26 17:53:00,
2013-07-26 14:03:00,87.0,77.0,29.99,WNW,296,0.0,2.0,72,0.00,,,0.14,,2013-07-26 18:03:00,
2013-07-26 14:12:00,86.0,77.0,29.99,NE,36,0.0,1.0,75,0.00,,,0.14,,2013-07-26 18:12:00,
2013-07-26 14:33:00,86.0,79.0,29.99,ESE,105,0.0,2.0,79,0.00,,,0.14,,2013-07-26 18:33:00,
2013-07-26 14:52:00,87.0,78.0,29.99,NE,56,0.0,2.0,76,0.00,,,0.14,,2013-07-26 18:52:00,
2013-07-26 15:03:00,87.0,78.0,29.98,NNE,33,0.0,2.0,74,0.00,,,0.14,,2013-07-26 19:03:00,
2013-07-26 15:32:00,88.0,78.0,29.98,NE,51,0.0,3.0,73,0.00,,,0.14,,2013-07-26 19:32:00,
2013-07-26 15:43:00,88.0,78.0,29.97,NE,37,1.0,5.0,73,0.00,,,0.14,,2013-07-26 19:43:00,
2013-07-26 16:02:00,89.0,79.0,29.97,East,89,0.0,2.0,73,0.00,,,0.14,,2013-07-26 20:02:00,
2013-07-26 16:32:00,89.0,78.0,29.96,NE,54,0.0,3.0,71,0.00,,,0.14,,2013-07-26 20:32:00,
2013-07-26 16:43:00,90.0,78.0,29.96,NE,56,0.0,2.0,69,0.00,,,0.14,,2013-07-26 20:43:00,
2013-07-26 16:53:00,90.0,79.0,29.96,NE,47,0.0,1.0,70,0.00,,,0.14,,2013-07-26 20:53:00,
2013-07-26 17:12:00,90.0,78.0,29.97,North,11,1.0,4.0,68,0.00,,,0.14,,2013-07-26 21:12:00,
2013-07-26 17:22:00,89.0,77.0,29.97,NNE,23,0.0,3.0,68,0.00,,,0.14,,2013-07-26 21:22:00,
2013-07-26 17:32:00,90.0,78.0,29.97,NE,56,0.0,2.0,68,0.00,,,0.14,,2013-07-26 21:32:00,
2013-07-26 17:53:00,90.0,77.0,29.97,NE,47,0.0,3.0,66,0.00,,,0.14,,2013-07-26 21:53:00,
2013-07-26 18:02:00,90.0,76.0,29.97,NE,41,1.0,3.0,64,0.00,,,0.14,,2013-07-26 22:02:00,
2013-07-26 18:22:00,89.0,76.0,29.96,East,80,0.0,2.0,66,0.00,,,0.14,,2013-07-26 22:22:00,
2013-07-26 18:33:00,89.0,77.0,29.96,ENE,69,0.0,2.0,67,0.00,,,0.14,,2013-07-26 22:33:00,
2013-07-26 18:53:00,85.0,76.0,29.96,East,91,0.0,1.0,74,0.00,,,0.14,,2013-07-26 22:53:00,
2013-07-26 19:12:00,82.0,75.0,29.96,East,90,0.0,0.0,80,0.00,,,0.14,,2013-07-26 23:12:00,
2013-07-26 19:22:00,82.0,76.0,29.96,East,90,0.0,1.0,82,0.00,,,0.14,,2013-07-26 23:22:00,
2013-07-26 19:32:00,81.0,75.0,29.96,East,90,0.0,0.0,83,0.00,,,0.14,,2013-07-26 23:32:00,
2013-07-26 19:43:00,81.0,76.0,29.97,East,90,0.0,0.0,84,0.00,,,0.14,,2013-07-26 23:43:00,
2013-07-26 19:53:00,80.0,75.0,29.97,East,90,0.0,0.0,85,0.00,,,0.14,,2013-07-26 23:53:00,
2013-07-26 20:02:00,80.0,75.0,29.97,East,90,0.0,0.0,86,0.00,,,0.14,,2013-07-27 00:02:00,
2013-07-26 20:12:00,80.0,76.0,29.97,East,90,0.0,0.0,87,0.00,,,0.14,,2013-07-27 00:12:00,
2013-07-26 20:22:00,80.0,76.0,29.97,East,90,0.0,0.0,88,0.00,,,0.14,,2013-07-27 00:22:00,
2013-07-26 20:32:00,80.0,76.0,29.98,East,90,0.0,0.0,89,0.00,,,0.14,,2013-07-27 00:32:00,
2013-07-26 20:43:00,79.0,75.0,29.98,East,90,0.0,0.0,89,0.00,,,0.14,,2013-07-27 00:43:00,
2013-07-26 20:53:00,79.0,76.0,29.98,East,90,0.0,0.0,90,0.00,,,0.14,,2013-07-27 00:53:00,
2013-07-26 21:02:00,79.0,76.0,29.98,East,90,0.0,0.0,91,0.00,,,0.14,,2013-07-27 01:02:00,
2013-07-26 21:12:00,79.0,76.0,29.99,East,90,0.0,0.0,91,0.00,,,0.14,,2013-07-27 01:12:00,
2013-07-26 21:22:00,79.0,76.0,29.99,East,90,0.0,0.0,91,0.00,,,0.14,,2013-07-27 01:22:00,
2013-07-26 21:32:00,79.0,76.0,30.00,East,90,0.0,0.0,92,0.00,,,0.14,,2013-07-27 01:32:00,
2013-07-26 21:43:00,78.0,76.0,29.99,East,90,0.0,0.0,93,0.00,,,0.14,,2013-07-27 01:43:00,
2013-07-26 21:53:00,78.0,76.0,29.99,East,90,0.0,0.0,93,0.00,,,0.14,,2013-07-27 01:53:00,
2013-07-26 22:02:00,78.0,76.0,29.99,East,90,0.0,0.0,93,0.00,,,0.14,,2013-07-27 02:02:00,
2013-07-26 22:12:00,78.0,76.0,30.00,East,90,0.0,0.0,94,0.00,,,0.14,,2013-07-27 02:12:00,
2013-07-26 22:22:00,78.0,76.0,30.00,East,90,0.0,0.0,94,0.00,,,0.14,,2013-07-27 02:22:00,
2013-07-26 22:32:00,78.0,76.0,30.01,East,90,0.0,0.0,94,0.00,,,0.14,,2013-07-27 02:32:00,
2013-07-26 22:43:00,78.0,76.0,30.01,East,90,0.0,0.0,94,0.00,,,0.14,,2013-07-27 02:43:00,
2013-07-26 22:53:00,78.0,76.0,30.01,East,90,0.0,0.0,95,0.00,,,0.14,,2013-07-27 02:53:00,
2013-07-26 23:03:00,78.0,76.0,30.01,East,90,0.0,0.0,95,0.00,,,0.14,,2013-07-27 03:03:00,
2013-07-26 23:44:00,77.0,76.0,30.00,East,90,0.0,0.0,96,0.00,,,0.14,,2013-07-27 03:44:00,
2013-07-26 23:52:00,77.0,76.0,30.00,East,90,0.0,0.0,96,0.00,,,0.14,,2013-07-27 03:52:00,